Weather reports worldwide

Advertisment
Torino/Caselle, Italy (16059): temperature & dewpoint: 17.09.2020 08:00:00 - 23.09.2020 08:00:00 (CEST)Torino/Caselle, Italy (16059): wind speed: 17.09.2020 08:00:00 - 23.09.2020 08:00:00 (CEST)Torino/Caselle, Italy (16059): wind direction: 17.09.2020 08:00:00 - 23.09.2020 08:00:00 (CEST)Torino/Caselle, Italy (16059): reduced air pressure: 17.09.2020 08:00:00 - 23.09.2020 08:00:00 (CEST)Torino/Caselle, Italy (16059): visibility: 17.09.2020 08:00:00 - 23.09.2020 08:00:00 (CEST)Torino/Caselle, Italy (16059): precipitation: 17.09.2020 08:00:00 - 23.09.2020 08:00:00 (CEST)
Date & Time tt [°C] td [°C] ff [km/h] ff [kn] dd ppp [hPa] vv [km] rr [mm]
23.09.2020 08:00:00 16,2 15,5 5 3 N 1011,8 5 -
23.09.2020 07:00:00 16,0 16,0 5 3 ENE - 5 -
23.09.2020 06:00:00 16,0 16,0 4 2 - - 4,0 -
23.09.2020 05:00:00 16,4 15,8 5 3 NNE 1011,6 6 0,0
23.09.2020 04:00:00 16,0 16,0 4 2 N - 7 -
23.09.2020 03:00:00 16,0 15,0 4 2 - - 10 -
23.09.2020 02:00:00 17,1 14,8 4 2 ENE 1012,1 6 -
23.09.2020 01:00:00 17,0 17,0 5 3 E - 5 -
23.09.2020 00:00:00 18,0 16,0 5 3 W - 8 -
22.09.2020 23:00:00 17,8 16,5 5 3 WSW 1013,4 10 0,0
22.09.2020 22:00:00 18,0 16,0 2 1 ESE - 10 -
22.09.2020 21:00:00 18,0 16,0 2 1 ENE - 10 -
22.09.2020 20:00:00 18,1 16,2 4 2 NNE 1013,1 10 -
22.09.2020 19:00:00 19,0 16,0 5 3 ENE - 10 -
22.09.2020 18:00:00 19,0 16,0 8 4 E - 10 -
22.09.2020 17:00:00 19,7 16,1 9 5 E 1014,1 10 0,0
22.09.2020 16:00:00 20,0 15,0 11 6 ENE - 10 -
22.09.2020 15:00:00 21,0 16,0 15 8 E - 10 -
22.09.2020 14:00:00 19,7 15,8 11 6 E 1015,4 10 -
22.09.2020 13:00:00 19,0 15,0 9 5 NE - 10 -
22.09.2020 12:00:00 18,0 16,0 9 5 NE - 9 -
22.09.2020 11:00:00 17,8 15,8 13 7 ENE 1016,4 6 0,0
22.09.2020 10:00:00 18,0 16,0 9 5 ENE - 5 -
22.09.2020 09:00:00 17,0 16,0 8 4 NNE - 8 -
22.09.2020 08:00:00 16,7 14,9 8 4 NNE 1015,8 9 -
22.09.2020 07:00:00 17,0 15,0 4 2 - - 10 -
22.09.2020 06:00:00 17,0 15,0 4 2 - - 10 -
22.09.2020 05:00:00 16,9 15,2 2 1 - 1015,5 10 0,0
22.09.2020 04:00:00 17,0 15,0 2 1 - - 10 -
22.09.2020 03:00:00 18,0 15,0 8 4 W - 10 -
22.09.2020 02:00:00 18,1 15,4 8 4 W 1016,8 10 -
22.09.2020 01:00:00 18,0 16,0 4 2 S - 10 -
22.09.2020 00:00:00 18,0 15,0 5 3 NNW - 10 -
21.09.2020 23:00:00 18,0 15,3 11 6 N 1017,2 10 0,0
21.09.2020 22:00:00 18,0 16,0 8 4 N - 10 -
21.09.2020 21:00:00 20,0 16,0 4 2 - - 10 -
21.09.2020 20:00:00 19,4 16,5 2 1 NNE 1016,7 10 -
21.09.2020 19:00:00 21,0 16,0 4 2 NE - 10 -
21.09.2020 18:00:00 23,0 16,0 8 4 E - 10 -
21.09.2020 17:00:00 22,7 15,0 8 4 ENE 1016,5 10 0,0
21.09.2020 16:00:00 22,0 16,0 5 3 E - 10 -
21.09.2020 15:00:00 21,0 16,0 5 3 - - 10 -
21.09.2020 14:00:00 20,9 16,2 11 6 E 1017,9 10 -
21.09.2020 13:00:00 20,0 16,0 11 6 ENE - 10 -
21.09.2020 12:00:00 20,0 16,0 5 3 - - 10 -
21.09.2020 11:00:00 19,0 15,6 8 4 ENE 1018,1 10 0,0
21.09.2020 10:00:00 18,0 16,0 5 3 NE - 10 -
21.09.2020 09:00:00 17,0 16,0 8 4 N - 10 -
21.09.2020 08:00:00 16,6 15,2 8 4 N 1016,8 10 -
21.09.2020 07:00:00 16,0 15,0 9 5 N - 10 -
21.09.2020 06:00:00 17,0 16,0 13 7 N - 9 -
21.09.2020 05:00:00 16,0 15,7 15 8 NNW 1016,5 3,0 0,0
21.09.2020 04:00:00 18,0 16,0 13 7 WNW - 3,0 -
21.09.2020 03:00:00 19,0 16,0 2 1 - - 8 -
21.09.2020 02:00:00 19,0 16,1 4 2 SSW 1016,6 8 -
21.09.2020 01:00:00 19,0 16,0 5 3 SSE - 9 -
21.09.2020 00:00:00 20,0 16,0 8 4 NNW - 8 -
20.09.2020 23:00:00 19,2 16,9 2 1 - 1016,5 8 0,0
20.09.2020 22:00:00 20,0 17,0 4 2 - - 9 -
20.09.2020 21:00:00 21,0 17,0 9 5 SW - 10 -
20.09.2020 20:00:00 21,4 15,8 8 4 NNE 1015,6 8 -
20.09.2020 19:00:00 23,0 15,0 4 2 - - 8 -
20.09.2020 18:00:00 24,0 14,0 5 3 E - 8 -
20.09.2020 17:00:00 23,5 14,5 5 3 - 1015,2 7 0,0
20.09.2020 16:00:00 24,0 15,0 5 3 - - 7 -
20.09.2020 15:00:00 24,0 16,0 5 3 - - 6 -
20.09.2020 14:00:00 22,9 15,7 5 3 - 1016,8 6 -
20.09.2020 13:00:00 21,0 16,0 4 2 - - 5 -
20.09.2020 12:00:00 21,0 16,0 5 3 E - 6 -
20.09.2020 11:00:00 20,5 15,5 8 4 N 1017,5 7 0,0
20.09.2020 10:00:00 19,0 16,0 11 6 WNW - 8 -
20.09.2020 09:00:00 19,0 15,0 2 1 - - 7 -
20.09.2020 08:00:00 18,3 15,8 4 2 - 1016,9 7 -
20.09.2020 07:00:00 18,0 16,0 5 3 NE - 10 -
20.09.2020 06:00:00 18,0 15,0 8 4 NNE - 10 -
20.09.2020 05:00:00 18,5 15,9 5 3 N 1017,3 10 0,0
20.09.2020 04:00:00 18,0 16,0 2 1 - - 10 -
20.09.2020 03:00:00 18,0 16,0 5 3 NNE - 10 -
20.09.2020 02:00:00 19,1 16,1 4 2 W 1018,1 10 -
20.09.2020 01:00:00 19,0 17,0 8 4 N - 10 -
20.09.2020 00:00:00 19,0 17,0 4 2 - - 10 -
19.09.2020 23:00:00 19,6 17,0 4 2 - 1018,4 10 0,0
19.09.2020 22:00:00 20,0 17,0 4 2 - - 10 -
19.09.2020 21:00:00 21,0 16,0 5 3 NW - 10 -
19.09.2020 20:00:00 21,9 14,9 5 3 NNW 1018,4 10 -
19.09.2020 19:00:00 23,0 14,0 5 3 NNE - 10 -
19.09.2020 18:00:00 23,0 14,0 4 2 - - 10 -
19.09.2020 17:00:00 23,4 13,6 8 4 ENE 1018,7 10 0,0
19.09.2020 16:00:00 23,0 14,0 8 4 ENE - 10 -
19.09.2020 15:00:00 23,0 15,0 8 4 - - 10 -
19.09.2020 14:00:00 22,2 15,0 8 4 NNE 1020,6 10 -
19.09.2020 13:00:00 21,0 16,0 4 2 - - 10 -
19.09.2020 12:00:00 20,0 15,0 4 2 - - 10 -
19.09.2020 11:00:00 19,9 14,7 9 5 NE 1021,7 10 0,0
19.09.2020 10:00:00 21,0 14,0 9 5 ENE - 10 -
19.09.2020 09:00:00 21,0 15,0 5 3 NNE - 10 -
19.09.2020 08:00:00 20,3 14,8 9 5 NNE 1021,2 10 -
19.09.2020 07:00:00 20,0 16,0 5 3 N - 10 -
19.09.2020 06:00:00 20,0 16,0 5 3 NE - 10 -
19.09.2020 05:00:00 19,7 16,2 5 3 N 1020,8 10 0,0
19.09.2020 04:00:00 21,0 16,0 5 3 N - 10 -
19.09.2020 03:00:00 21,0 16,0 8 4 NNW - 10 -
19.09.2020 02:00:00 21,3 16,0 5 3 NNW 1021,3 10 -
19.09.2020 01:00:00 21,0 16,0 8 4 N - 10 -
19.09.2020 00:00:00 23,0 16,0 11 6 NW - 10 -
18.09.2020 23:00:00 21,8 16,1 9 5 NNW 1021,3 10 0,0
18.09.2020 22:00:00 22,0 16,0 11 6 N - 10 -
18.09.2020 21:00:00 23,0 16,0 8 4 N - 10 -
18.09.2020 20:00:00 24,2 15,4 9 5 ENE 1019,8 10 -
18.09.2020 19:00:00 27,0 15,0 9 5 ENE - 10 -
18.09.2020 18:00:00 28,0 14,0 5 3 NE - 10 -
18.09.2020 17:00:00 28,9 14,4 8 4 ESE 1019,5 10 0,0
18.09.2020 16:00:00 29,0 15,0 9 5 ESE - 10 -
18.09.2020 15:00:00 29,0 15,0 5 3 - - 10 -
18.09.2020 14:00:00 27,6 14,9 8 4 - 1021,1 10 -
18.09.2020 13:00:00 26,0 15,0 11 6 ENE - 10 -
18.09.2020 12:00:00 26,0 14,0 9 5 E - 10 -
18.09.2020 11:00:00 24,9 14,3 5 3 - 1021,9 10 0,0
18.09.2020 10:00:00 23,0 14,0 4 2 - - 10 -
18.09.2020 09:00:00 20,0 14,0 2 1 - - 10 -
18.09.2020 08:00:00 17,7 13,1 4 2 - 1020,8 10 -
18.09.2020 07:00:00 17,0 13,0 4 2 - - 10 -
18.09.2020 06:00:00 19,0 13,0 4 2 WNW - 10 -
18.09.2020 05:00:00 18,1 13,1 2 1 - 1020,4 10 0,0
18.09.2020 04:00:00 18,0 13,0 4 2 - - 10 -
18.09.2020 03:00:00 19,0 14,0 4 2 SSW - 10 -
18.09.2020 02:00:00 21,2 12,7 13 7 NW 1020,0 10 -
18.09.2020 01:00:00 22,0 13,0 13 7 NW - 10 -
18.09.2020 00:00:00 22,0 13,0 9 5 NW - 10 -
17.09.2020 23:00:00 21,3 13,3 8 4 N 1019,5 10 0,0
17.09.2020 22:00:00 22,0 14,0 8 4 NNW - 10 -
17.09.2020 21:00:00 24,0 14,0 9 5 NNW - 10 -
17.09.2020 20:00:00 25,5 13,5 5 3 ENE 1017,5 10 -
17.09.2020 19:00:00 28,0 13,0 9 5 E - 10 -
17.09.2020 18:00:00 30,0 12,0 8 4 E - 10 -
17.09.2020 17:00:00 30,1 10,2 9 5 E 1016,9 10 0,0
17.09.2020 16:00:00 30,0 11,0 8 4 - - 10 -
17.09.2020 15:00:00 30,0 13,0 5 3 S - 10 -
17.09.2020 14:00:00 29,3 14,0 8 4 E 1018,0 10 -
17.09.2020 13:00:00 28,0 14,0 8 4 - - 10 -
17.09.2020 12:00:00 27,0 14,0 5 3 SSE - 10 -
17.09.2020 11:00:00 24,9 14,4 5 3 - 1018,5 10 0,0
17.09.2020 10:00:00 23,0 14,0 2 1 - - 10 -
17.09.2020 09:00:00 20,0 13,0 4 2 - - 10 -
17.09.2020 08:00:00 17,9 12,4 5 3 W 1017,5 10 -

tt = temperature
td = dewpoint
ff = wind speed
dd = wind direction
ppp = reduced air pressure
vv = visibility
rr = precipitation

Next stations